GFSNE_sfc_thetae_060.txt.gz
Theta_e
349 349 345 342 340 338 335 335 335 329 330 338 336 340 341 343 346 347 348 343 341 339 335 335 337 339 341 343 343 343 342 342 340 339 339 339 338 334
348 347 348 348 344 340 340 335 332 332 328 333 337 339 340 340 342 345 344 342 339 338 335 333 334 336 337 339 339 339 339 338 337 337 337 338 338 333
351 350 348 347 346 345 340 338 334 331 330 335 332 338 341 341 342 344 341 341 341 335 335 333 332 333 335 335 335 336 336 336 335 335 336 337 337 332
352 352 351 350 348 348 343 342 338 335 333 332 335 335 339 342 341 341 340 338 338 334 332 332 331 330 330 330 330 331 330 331 332 332 334 335 335 330
353 352 352 352 351 350 347 345 341 340 336 332 334 334 337 338 338 338 338 340 340 336 329 329 330 329 328 327 326 325 324 325 325 326 328 329 330 327
353 353 353 353 352 353 350 350 347 342 338 335 336 335 335 339 337 336 336 336 336 337 335 332 331 331 329 327 325 324 324 322 319 321 322 323 324 324
353 353 354 353 347 348 352 352 350 346 345 340 339 340 337 337 336 340 335 338 339 339 337 337 336 333 331 329 331 329 324 322 319 319 318 317 317 319
352 353 354 349 347 340 339 341 348 348 346 344 343 341 343 343 342 338 336 334 331 339 336 336 337 335 337 335 331 328 324 323 322 321 319 316 315 315
354 354 353 354 348 354 342 336 337 335 340 351 347 345 344 347 346 341 337 337 335 338 337 332 338 334 337 335 328 326 325 324 323 322 320 317 314 313
354 354 354 354 354 353 353 353 351 350 347 346 349 351 353 355 351 347 345 341 337 338 338 330 337 333 334 335 328 327 325 324 322 320 318 315 312 310
354 355 354 354 342 333 352 351 352 353 343 333 334 334 333 332 337 344 338 333 332 335 341 334 335 334 334 333 331 328 325 322 321 320 318 315 310 308
353 354 336 348 333 327 347 352 350 352 355 355 354 343 334 339 331 339 343 337 336 333 340 333 334 334 327 334 333 332 330 321 317 317 316 314 308 317
351 353 355 329 324 322 325 353 350 353 352 353 354 354 352 352 353 347 341 339 337 336 342 337 333 333 331 324 331 332 333 328 326 317 309 308 306 312
353 355 355 326 320 319 324 329 326 329 350 349 351 351 352 351 352 349 346 341 341 345 346 340 335 334 331 320 320 326 328 325 322 318 316 308 305 305
357 348 333 320 317 320 318 321 320 337 342 344 345 348 352 353 349 347 348 347 344 338 338 340 339 338 334 316 316 322 319 316 317 315 315 313 311 312
333 344 337 332 328 334 333 327 330 338 342 343 346 347 344 343 342 344 342 341 329 330 331 329 333 329 323 320 319 320 318 315 314 316 314 311 313 314
340 348 345 345 347 343 344 346 341 340 338 341 340 337 338 340 340 341 337 333 330 328 324 323 323 321 317 318 317 316 312 313 315 311 313 310 311 312
336 346 345 345 345 347 346 344 342 337 340 338 337 338 337 332 333 333 332 333 329 325 321 320 321 319 318 317 316 311 309 309 309 311 313 310 308 309
346 346 346 348 346 347 346 343 339 340 340 339 337 331 333 332 331 329 330 332 326 324 322 321 320 319 315 312 310 310 310 309 307 308 310 311 310 309
343 346 345 342 343 343 342 339 336 336 335 332 331 335 332 330 327 328 329 327 324 322 318 318 319 322 318 316 311 309 306 310 310 308 307 307 307 306
340 338 338 336 335 338 336 334 334 332 332 331 331 333 333 330 329 328 326 316 317 320 318 316 317 313 314 315 312 310 312 305 312 313 308 308 306 306
334 334 332 330 329 331 330 330 330 325 327 329 330 333 329 329 326 326 323 322 321 320 319 314 316 314 314 313 310 311 311 311 308 307 307 308 307 304
329 329 326 327 327 329 329 328 328 327 327 328 331 330 329 328 327 327 325 325 323 320 320 317 314 314 313 314 310 310 312 311 310 310 309 306 306 305

GFSNE_sfc_thetae_063.txt.gz
Theta_e
361 362 358 354 352 349 345 343 338 332 334 344 343 352 351 351 353 354 354 346 341 340 339 337 337 339 341 343 344 345 345 345 343 341 339 339 339 338
358 360 360 357 357 354 350 348 344 341 335 343 343 348 351 348 351 352 353 347 342 339 337 336 335 336 338 339 340 340 340 341 340 339 338 338 339 338
363 361 360 362 357 356 354 350 347 344 339 341 345 348 351 352 351 353 352 353 350 338 337 336 333 333 334 336 336 336 337 337 337 337 337 337 338 337
361 362 361 359 362 361 357 358 355 354 345 347 348 346 351 353 354 354 351 348 349 342 335 334 333 331 330 331 331 331 331 332 333 333 334 335 337 335
361 362 362 362 361 359 359 356 355 355 352 346 345 348 349 348 350 352 351 353 349 343 333 331 331 330 329 327 327 326 325 326 326 326 327 330 333 333
362 363 362 362 362 362 361 361 360 356 356 351 349 348 350 355 350 345 345 348 346 347 343 337 336 332 330 327 326 325 322 320 320 320 322 324 327 327
361 362 362 359 350 353 359 364 363 357 353 349 347 347 346 347 347 348 347 348 351 351 347 347 344 342 340 331 332 330 324 321 319 319 319 319 320 320
360 363 364 354 352 340 339 341 353 363 359 353 350 350 358 355 354 351 350 348 345 356 349 344 352 346 345 343 336 330 324 322 320 320 318 317 317 317
362 361 358 356 355 362 345 336 337 335 340 359 359 359 360 361 361 357 359 355 351 354 352 341 353 343 351 346 332 327 324 322 322 320 319 317 316 314
362 363 363 362 363 361 360 359 362 361 359 353 357 358 362 364 365 362 357 351 349 348 348 334 346 345 348 351 332 327 324 323 322 322 319 318 314 311
361 363 363 363 347 334 358 358 361 361 348 336 337 335 333 332 338 349 346 343 341 343 349 340 343 345 348 347 341 327 324 321 321 320 320 317 312 309
360 364 338 352 334 327 355 357 358 358 361 363 364 350 340 350 332 345 349 342 343 340 349 338 344 343 333 336 338 335 330 320 318 317 317 315 310 323
354 355 358 328 325 321 325 360 358 358 356 362 361 360 361 360 362 361 349 347 343 342 349 346 337 337 333 334 333 335 330 325 327 320 313 310 308 322
357 360 361 326 318 318 324 331 326 330 357 357 355 353 355 357 356 355 355 349 349 347 351 346 339 338 336 331 324 331 331 329 330 324 325 310 306 307
360 351 333 320 318 324 319 322 322 345 347 347 350 353 356 358 358 355 352 354 355 341 342 341 339 340 337 326 323 320 321 323 328 322 320 319 319 318
335 350 345 336 331 337 338 334 338 347 348 350 349 354 355 353 349 348 347 346 343 342 339 334 336 337 327 325 327 323 323 317 321 320 321 319 320 323
345 353 352 349 348 347 349 353 354 348 343 344 347 347 346 345 345 341 343 340 337 335 332 331 333 334 331 332 325 325 323 322 323 318 318 320 324 323
343 351 350 352 352 353 351 350 350 343 346 348 348 348 343 340 339 338 340 338 337 335 328 328 327 328 328 325 323 321 317 318 320 324 328 323 320 321
349 351 353 353 352 351 352 351 348 350 355 350 346 344 342 342 335 338 335 336 334 335 330 328 328 325 325 325 323 310 320 321 325 323 322 323 320 319
345 352 354 354 356 353 351 350 350 348 346 345 344 343 339 336 333 334 333 332 333 331 328 328 327 324 327 327 325 322 305 326 322 318 321 320 312 307
354 352 355 357 353 349 350 347 346 343 343 340 337 338 335 333 333 334 332 319 324 328 327 327 325 317 330 326 322 318 316 306 315 324 321 317 314 314
357 355 349 342 341 340 340 340 341 338 340 338 335 340 339 339 335 332 330 332 329 329 329 329 323 325 324 325 324 323 318 315 309 308 309 310 315 311
349 347 340 338 335 335 335 335 337 338 335 335 336 337 337 333 334 331 330 331 330 327 325 324 326 325 324 323 319 321 321 319 317 315 315 307 307 307

GFSNE_sfc_thetae_069.txt.gz
Theta_e
364 365 358 350 349 349 347 345 341 335 337 349 344 360 351 349 354 355 357 349 344 342 340 340 341 343 343 343 345 345 345 346 347 348 348 347 344 341
356 368 367 355 358 353 352 350 347 342 337 342 345 350 358 350 355 357 357 349 343 341 339 338 338 339 340 339 340 341 342 343 344 345 345 344 342 342
366 366 368 372 356 354 354 353 349 347 342 345 347 356 366 366 361 364 359 362 354 340 339 338 336 336 337 337 336 337 338 339 341 342 343 341 340 339
363 368 364 357 371 370 358 368 359 364 349 357 357 354 363 367 367 367 357 357 358 349 338 337 335 334 334 333 333 332 332 333 335 336 339 338 337 337
364 366 365 368 371 363 368 361 357 360 359 354 353 356 356 356 359 367 367 366 360 349 340 335 334 334 333 331 330 328 326 326 327 329 331 333 334 335
363 365 366 367 369 372 369 372 368 363 359 353 353 353 354 364 358 353 353 356 355 355 351 346 342 336 333 330 329 329 325 321 320 322 324 326 328 330
365 365 366 363 352 358 360 368 371 363 354 352 351 350 350 350 355 356 353 357 361 362 360 362 364 363 356 332 336 333 329 325 321 320 322 320 322 325
366 368 370 359 355 343 342 342 353 366 368 356 352 351 361 359 358 356 358 355 352 362 366 362 366 362 365 365 340 335 329 328 324 320 319 320 321 322
366 368 365 355 357 369 347 340 341 338 342 361 361 361 362 366 368 366 361 360 359 365 364 358 362 358 361 361 339 331 330 327 325 321 319 318 319 319
365 368 368 366 365 366 369 367 367 366 363 357 362 363 367 370 369 368 368 366 365 367 370 354 359 356 360 359 340 333 328 325 322 318 317 316 317 315
364 365 365 366 350 337 363 361 362 362 346 334 336 338 339 337 345 357 356 356 353 356 362 361 357 354 353 351 350 334 327 321 317 317 317 315 313 312
363 367 341 354 337 330 362 363 360 363 364 364 367 357 340 349 333 353 361 357 358 351 362 354 352 350 342 346 348 346 345 318 313 313 314 313 311 321
352 351 355 331 327 325 327 363 360 363 359 363 364 365 368 369 372 370 365 367 359 357 356 352 347 346 345 343 346 339 336 324 320 316 310 310 310 321
354 348 352 324 319 321 327 331 327 332 357 357 357 358 361 364 366 367 376 373 368 362 360 353 344 344 340 337 333 331 330 326 324 322 321 311 312 314
357 343 327 320 316 321 318 323 323 355 358 357 357 359 362 365 373 373 372 369 364 364 356 354 348 347 341 336 329 327 326 329 324 319 319 318 322 321
341 352 346 335 322 337 349 338 354 362 361 361 362 364 365 366 367 366 360 354 351 348 351 352 350 347 340 339 334 330 330 327 328 325 322 325 327 323
351 358 357 356 358 360 363 364 364 365 364 364 363 364 364 363 361 360 352 350 351 349 345 345 348 347 343 342 335 337 336 332 330 328 326 325 327 322
351 357 357 359 361 360 360 357 362 357 363 365 363 359 356 354 353 352 350 349 349 348 348 344 342 339 338 340 327 336 336 333 329 329 328 324 325 329
361 361 359 360 361 359 358 361 360 362 365 364 361 358 356 354 347 348 349 348 348 350 344 345 340 336 331 329 336 317 336 332 331 327 329 328 327 332
358 359 360 363 363 361 362 361 363 364 367 364 359 356 356 352 348 344 346 348 350 344 343 342 340 337 333 334 339 335 310 336 331 331 331 332 320 316
360 360 361 361 362 364 364 365 365 362 361 361 359 356 354 352 347 348 351 330 332 342 340 339 340 333 342 343 336 331 330 311 326 334 334 330 324 322
358 358 358 361 364 365 364 368 362 358 358 355 355 355 355 354 349 348 349 346 342 340 340 342 345 341 338 335 333 335 331 329 314 311 311 322 329 323
360 360 366 363 366 368 364 363 360 358 356 355 353 353 353 350 350 347 345 343 341 340 339 338 338 338 337 335 330 333 335 331 328 326 326 308 310 311

GFSNE_sfc_thetae_072.txt.gz
Theta_e
364 366 364 358 356 354 353 350 346 337 339 349 348 358 352 352 359 353 353 348 344 342 340 340 340 343 345 346 344 344 344 344 345 345 347 349 350 346
363 363 365 358 360 358 357 357 353 347 340 347 349 355 356 350 357 355 356 351 344 341 339 338 338 339 340 342 341 341 341 342 343 343 344 346 345 344
363 365 363 365 362 361 360 359 354 354 346 348 354 355 363 361 355 359 362 358 356 340 339 338 336 337 338 338 338 337 338 339 340 341 343 344 343 342
364 364 364 363 365 364 361 360 360 364 357 352 356 355 355 356 362 362 360 356 355 351 339 336 335 334 334 334 334 334 333 334 334 336 339 340 341 339
364 365 363 365 364 361 362 358 358 357 357 354 351 358 359 359 355 363 362 358 358 352 343 337 334 333 332 331 330 329 327 328 329 329 332 334 337 337
363 361 363 362 363 364 363 364 364 361 359 357 353 352 353 356 358 353 354 360 357 354 352 346 341 337 333 330 329 328 326 323 323 324 325 327 331 332
363 363 363 362 354 358 362 364 363 361 358 355 353 353 351 354 352 354 351 356 359 359 355 357 361 361 346 333 336 333 328 325 323 323 323 321 322 326
360 361 364 353 351 343 341 343 352 361 358 356 354 350 353 355 357 356 354 351 348 361 362 359 363 360 360 360 344 332 328 326 323 322 321 318 319 322
362 361 362 359 352 363 345 340 341 338 342 354 352 353 352 355 357 357 356 355 355 361 359 354 361 358 361 358 340 331 327 325 322 321 320 317 317 320
360 360 361 360 361 363 363 362 359 358 355 349 352 356 359 362 363 361 361 360 360 361 363 352 359 357 358 357 335 331 327 325 323 319 317 315 314 315
356 357 360 362 348 339 353 353 353 354 347 334 341 342 342 341 347 360 353 347 348 355 363 356 357 351 352 349 346 330 322 318 318 316 316 314 311 312
356 358 339 348 336 331 352 356 354 355 358 359 360 354 337 342 332 343 349 348 352 353 360 353 349 346 340 345 343 334 332 318 312 312 313 312 310 324
353 353 357 333 327 324 326 356 353 355 355 360 360 360 362 364 366 357 359 358 356 356 355 355 347 345 343 339 338 331 328 324 321 314 308 308 312 320
354 354 353 325 321 322 325 331 328 330 355 355 354 354 356 359 365 369 371 369 367 361 355 356 347 345 340 335 329 330 329 326 322 318 316 309 310 310
358 346 327 323 316 316 318 323 322 344 350 352 354 356 361 363 365 368 371 369 367 365 357 353 351 346 341 335 328 327 325 324 322 318 317 319 322 321
339 350 344 335 325 336 345 328 342 354 356 358 358 362 364 365 363 366 364 361 353 351 351 352 350 348 339 338 332 328 326 323 322 321 320 321 324 322
347 354 354 353 351 351 357 362 357 358 358 359 359 359 360 362 363 366 360 351 347 348 347 344 343 347 344 340 332 333 332 327 326 324 323 321 323 321
346 354 354 355 355 355 355 357 363 357 362 362 363 362 362 359 356 356 353 349 347 348 349 342 341 339 338 339 338 336 335 330 328 326 326 323 322 323
356 356 357 359 360 360 364 363 358 358 361 362 362 362 358 355 349 351 349 348 346 348 346 348 341 336 331 328 335 322 334 329 327 326 326 326 324 323
361 361 362 364 365 364 362 360 359 361 364 363 362 360 356 353 351 349 348 347 346 345 347 347 341 338 333 331 333 334 310 331 327 326 326 328 326 322
360 359 359 360 361 366 366 367 365 363 362 363 364 361 356 354 350 349 348 329 335 345 343 340 342 336 342 339 332 329 327 314 327 329 328 327 319 320
356 358 362 361 362 362 362 364 366 364 363 360 354 353 353 353 352 350 350 348 347 344 341 344 346 340 338 335 332 333 328 326 311 312 316 324 327 318
355 354 357 366 369 370 369 365 360 363 361 360 357 356 353 352 353 352 351 345 340 338 339 339 340 339 336 335 330 333 332 326 324 322 322 308 311 313

GFSNE_sfc_thetae_075.txt.gz
Theta_e
348 350 350 348 346 343 339 336 333 326 328 337 338 344 344 346 348 349 345 346 343 342 339 339 339 340 343 346 347 346 345 345 344 345 345 347 349 352
352 352 348 349 348 351 342 342 338 333 328 336 337 342 348 344 349 345 345 349 345 341 339 337 338 339 340 341 343 343 342 342 342 342 343 343 345 347
351 352 350 350 348 349 352 349 343 340 334 336 342 345 349 349 350 347 348 348 348 341 339 338 336 337 338 338 338 338 339 339 339 340 341 341 342 344
352 350 352 355 351 350 350 347 348 349 342 339 344 344 344 347 348 348 352 356 351 349 342 338 335 334 333 333 333 333 334 334 335 336 336 339 340 341
354 354 353 353 350 351 348 347 347 348 346 344 342 346 349 351 350 348 353 355 356 349 340 339 338 334 332 330 328 327 326 327 327 329 330 332 335 339
355 354 355 354 352 352 354 353 353 351 349 348 347 346 345 349 348 346 344 348 349 356 352 346 343 341 334 329 328 328 324 322 321 322 323 325 328 332
353 354 354 353 352 351 356 354 354 351 351 349 347 345 343 341 342 346 346 348 348 349 349 354 357 357 356 339 336 334 328 324 321 319 319 319 321 326
353 353 355 351 350 344 343 344 353 352 350 349 346 344 342 344 347 347 346 342 343 352 354 355 355 354 356 355 336 334 328 325 322 320 319 317 318 321
354 353 353 356 349 353 344 339 338 337 342 349 345 345 345 346 346 346 347 348 347 354 352 350 354 352 356 345 330 328 325 323 322 321 319 316 316 317
354 354 354 353 351 349 350 351 350 348 347 345 344 348 350 351 351 353 352 350 353 354 353 347 351 350 351 334 328 325 321 318 318 319 317 314 313 312
350 351 353 353 344 337 348 347 348 352 349 335 337 337 338 338 344 352 352 347 347 343 353 349 347 343 345 336 327 324 320 316 313 315 315 313 310 311
346 348 337 347 336 331 346 348 345 347 347 350 348 339 334 340 335 344 350 347 344 344 351 349 345 341 335 335 326 324 325 317 311 310 313 311 309 322
346 346 349 330 323 321 325 346 344 346 344 347 350 352 354 354 356 342 343 345 343 347 353 351 341 342 336 334 325 323 321 322 319 314 307 307 309 320
349 350 348 328 322 321 323 328 327 328 345 347 347 346 347 349 353 357 358 353 356 356 354 351 347 343 336 329 325 322 322 323 320 316 314 309 310 313
354 346 333 325 316 316 318 322 322 332 340 342 344 346 349 353 355 355 358 360 358 357 352 351 348 345 337 332 323 319 318 322 320 317 317 321 320 320
339 344 331 331 330 337 334 324 326 335 339 341 344 349 353 354 353 355 353 354 350 348 352 352 349 344 337 335 326 320 320 320 320 320 319 321 322 322
342 348 347 346 347 347 343 347 337 339 344 349 350 350 351 351 352 355 353 347 346 342 344 344 345 343 341 332 324 323 320 322 323 321 320 319 322 322
337 347 346 347 347 346 345 343 351 345 349 351 353 353 352 351 353 353 352 350 347 348 346 339 338 336 335 334 332 327 324 322 322 322 323 320 320 323
345 345 347 348 348 349 349 349 347 353 356 353 352 353 353 350 347 349 348 347 346 347 347 343 338 335 328 323 329 327 327 322 324 322 324 324 322 324
347 346 348 350 352 353 353 353 353 353 352 352 352 352 352 349 349 347 346 345 345 346 345 344 339 336 333 331 326 327 317 324 324 324 323 326 326 322
348 350 351 352 352 353 355 353 352 352 352 353 355 354 353 351 348 347 345 329 335 344 342 341 343 334 340 335 327 323 321 313 325 325 325 324 323 320
346 348 347 347 348 349 351 355 353 351 352 352 351 350 350 352 350 348 348 343 341 341 341 345 340 335 332 329 327 325 322 318 312 315 321 324 324 317
329 324 323 319 317 319 320 326 347 349 349 350 349 348 347 345 346 346 344 343 342 338 335 333 334 333 333 332 328 328 327 321 318 315 316 310 312 315